Eastsound, WA
on Tuesday, December 11, 2012

Tuesday
Previous Day Next Day
Daily Summary
 ActualAverage (KBLI)Record (KBLI)
Temperature
Mean Temperature °F 38°F  
Max Temperature 44°F 44°F 58°F (1995)
Min Temperature 42°F 32°F 20°F (1949)
Degree Days
Heating Degree Days 22 27  
Month to date heating degree days 287  
Cooling Degree Days 0 0  
Month to date cooling degree days 0  
Year to date cooling degree days 42  
Moisture
Dew Point 41°F   
Average Humidity 86    
Maximum Humidity 93    
Minimum Humidity 81    
Precipitation
Precipitation 0.00 in 0.13 in 1.23 in (1955)
Month to date precipitation 1.69  
Year to date precipitation 33.30  
Wind
Wind Speed 8 mph   
Max Wind Speed 18 mph   
Max Gust Speed 23 mph   
Visibility 9 miles   
Events Rain   

Key: T is trace of precipitation, MM is missing value
Source: NWS Daily Summary
Time(PST)TemperatureDew PointHumidity Pressure Visibility Wind DirectionWind SpeedGust SpeedPrecipitationEvents Conditions
12:15 AM 44.6°F 41.0°F 87% 30.02 in 10.0 miles SSW 10.4 mph - N/A   Overcast
12:35 AM 44.6°F 41.0°F 87% 30.01 in 10.0 miles SSW 8.1 mph 17.3 mph N/A   Overcast
12:55 AM 44.6°F 39.2°F 81% 29.99 in 10.0 miles SSW 11.5 mph - N/A   Overcast
1:15 AM 44.6°F 39.2°F 81% 29.99 in 10.0 miles SW 8.1 mph - N/A   Overcast
1:35 AM 44.6°F 39.2°F 81% 29.98 in 10.0 miles SW 4.6 mph - N/A   Overcast
1:55 AM 42.8°F 39.2°F 87% 29.96 in 10.0 miles South 3.5 mph - N/A   Overcast
2:15 AM 42.8°F 39.2°F 87% 29.94 in 10.0 miles South 6.9 mph - N/A   Partly Cloudy
2:35 AM 44.6°F 39.2°F 81% 29.93 in 10.0 miles South 5.8 mph - N/A   Clear
2:55 AM 42.8°F 39.2°F 87% 29.92 in 10.0 miles SSW 11.5 mph - N/A   Clear
3:15 AM 44.6°F 39.2°F 81% 29.90 in 10.0 miles SSW 10.4 mph - N/A   Clear
3:35 AM 44.6°F 39.2°F 81% 29.88 in 10.0 miles South 4.6 mph - N/A   Clear
4:15 AM 44.6°F 39.2°F 81% 29.86 in 10.0 miles South 5.8 mph - N/A   Scattered Clouds
4:35 AM 44.6°F 39.2°F 81% 29.83 in 10.0 miles South 8.1 mph - N/A   Scattered Clouds
4:55 AM 44.6°F 39.2°F 81% 29.82 in 10.0 miles South 5.8 mph 19.6 mph N/A   Clear
5:15 AM 44.6°F 39.2°F 81% 29.79 in 10.0 miles SSW 12.7 mph - N/A   Partly Cloudy
5:35 AM 44.6°F 39.2°F 81% 29.77 in 10.0 miles South 9.2 mph - N/A   Scattered Clouds
5:55 AM 44.6°F 39.2°F 81% 29.76 in 10.0 miles South 16.1 mph 20.7 mph N/A   Clear
6:15 AM 44.6°F 39.2°F 81% 29.74 in 10.0 miles South 12.7 mph 17.3 mph N/A   Clear
6:35 AM 44.6°F 39.2°F 81% 29.72 in 10.0 miles South 9.2 mph 17.3 mph N/A Rain Light Rain
6:55 AM 44.6°F 39.2°F 81% 29.73 in 9.0 miles South 10.4 mph 18.4 mph N/A Rain Light Rain
7:15 AM 44.6°F 39.2°F 81% 29.73 in 10.0 miles South 17.3 mph 23.0 mph N/A   Partly Cloudy
7:35 AM 42.8°F 39.2°F 87% 29.72 in 9.0 miles South 10.4 mph 19.6 mph N/A Rain Light Rain
7:55 AM 42.8°F 39.2°F 87% 29.71 in 10.0 miles SSW 18.4 mph 23.0 mph N/A   Scattered Clouds
8:15 AM 42.8°F 39.2°F 87% 29.70 in 10.0 miles South 8.1 mph 18.4 mph N/A   Mostly Cloudy
8:35 AM 42.8°F 39.2°F 87% 29.69 in 10.0 miles South 10.4 mph 21.9 mph N/A   Mostly Cloudy
8:55 AM 44.6°F 39.2°F 81% 29.67 in 10.0 miles South 11.5 mph 23.0 mph N/A   Mostly Cloudy
9:15 AM 44.6°F 41.0°F 87% 29.66 in 10.0 miles South 9.2 mph 17.3 mph N/A   Mostly Cloudy
9:35 AM 44.6°F 41.0°F 87% 29.66 in 10.0 miles South 11.5 mph 16.1 mph N/A   Mostly Cloudy
9:55 AM 44.6°F 41.0°F 87% 29.65 in 10.0 miles South 6.9 mph 18.4 mph N/A   Overcast
10:15 AM 44.6°F 41.0°F 87% 29.64 in 10.0 miles SSE 8.1 mph - N/A   Overcast
10:35 AM 44.6°F 39.2°F 81% 29.63 in 10.0 miles South 9.2 mph 17.3 mph N/A   Overcast
10:55 AM 44.6°F 41.0°F 87% 29.62 in 9.0 miles South 8.1 mph - N/A Rain Light Rain
11:15 AM 44.6°F 41.0°F 87% 29.61 in 9.0 miles South 9.2 mph - N/A Rain Light Rain
11:35 AM 44.6°F 41.0°F 87% 29.60 in 10.0 miles South 10.4 mph 17.3 mph N/A   Overcast
11:55 AM 44.6°F 41.0°F 87% 29.59 in 9.0 miles South 10.4 mph - N/A Rain Light Rain
12:15 PM 44.6°F 41.0°F 87% 29.58 in 5.0 miles South 6.9 mph 16.1 mph N/A Rain Light Rain
12:35 PM 44.6°F 41.0°F 87% 29.56 in 3.0 miles South 8.1 mph - N/A Rain Rain
12:55 PM 44.6°F 41.0°F 87% 29.56 in 5.0 miles South 9.2 mph - N/A Rain Light Rain
1:15 PM 44.6°F 41.0°F 87% 29.56 in 6.0 miles South 5.8 mph - N/A Rain Light Rain
1:35 PM 44.6°F 41.0°F 87% 29.55 in 5.0 miles South 5.8 mph - N/A Rain Light Rain
1:55 PM 44.6°F 41.0°F 87% 29.54 in 5.0 miles South 6.9 mph - N/A Rain Light Rain
2:15 PM 44.6°F 41.0°F 87% 29.53 in 4.0 miles South 5.8 mph - N/A Rain Light Rain
2:35 PM 44.6°F 41.0°F 87% 29.52 in 7.0 miles South 5.8 mph - N/A Rain Light Rain
2:55 PM 44.6°F 41.0°F 87% 29.52 in 10.0 miles South 8.1 mph - N/A   Overcast
3:15 PM 44.6°F 41.0°F 87% 29.52 in 10.0 miles South 4.6 mph - N/A   Overcast
3:35 PM 44.6°F 41.0°F 87% 29.52 in 8.0 miles South 8.1 mph - N/A Rain Light Rain
3:55 PM 44.6°F 42.8°F 93% 29.52 in 7.0 miles South 6.9 mph - N/A Rain Light Rain
4:15 PM 44.6°F 41.0°F 87% 29.51 in 10.0 miles South 3.5 mph - N/A   Mostly Cloudy
4:35 PM 44.6°F 41.0°F 87% 29.51 in 10.0 miles South 4.6 mph - N/A   Overcast
4:55 PM 44.6°F 41.0°F 87% 29.51 in 10.0 miles South 6.9 mph - N/A   Overcast
5:15 PM 44.6°F 42.8°F 93% 29.52 in 10.0 miles South 4.6 mph - N/A   Overcast
5:35 PM 44.6°F 42.8°F 93% 29.52 in 10.0 miles South 4.6 mph - N/A   Overcast
5:55 PM 44.6°F 42.8°F 93% 29.52 in 10.0 miles Calm Calm - N/A   Overcast
6:15 PM 44.6°F 42.8°F 93% 29.52 in 10.0 miles South 4.6 mph - N/A   Overcast
6:35 PM 44.6°F 42.8°F 93% 29.52 in 10.0 miles South 3.5 mph - N/A   Overcast
6:55 PM 44.6°F 42.8°F 93% 29.52 in 10.0 miles South 6.9 mph - N/A   Overcast
7:15 PM 44.6°F 41.0°F 87% 29.52 in 10.0 miles South 4.6 mph - N/A   Overcast
7:35 PM 44.6°F 42.8°F 93% 29.52 in 10.0 miles South 6.9 mph - N/A   Mostly Cloudy
8:15 PM 44.6°F 41.0°F 87% 29.54 in 10.0 miles SSW 6.9 mph - N/A   Overcast
8:35 PM 44.6°F 41.0°F 87% 29.54 in 10.0 miles Calm Calm - N/A   Overcast
8:55 PM 44.6°F 41.0°F 87% 29.54 in 10.0 miles Calm Calm - N/A   Overcast
9:15 PM 44.6°F 41.0°F 87% 29.55 in 10.0 miles Calm Calm - N/A   Overcast
9:35 PM 44.6°F 41.0°F 87% 29.55 in 10.0 miles SSW 6.9 mph - N/A   Overcast
9:55 PM 44.6°F 41.0°F 87% 29.56 in 10.0 miles South 4.6 mph - N/A   Overcast
10:15 PM 44.6°F 41.0°F 87% 29.56 in 10.0 miles South 4.6 mph - N/A   Overcast
10:35 PM 44.6°F 41.0°F 87% 29.56 in 10.0 miles South 6.9 mph - N/A   Overcast
10:55 PM 42.8°F 41.0°F 93% 29.56 in 10.0 miles South 4.6 mph - N/A   Overcast
11:15 PM 42.8°F 41.0°F 93% 29.57 in 10.0 miles South 5.8 mph - N/A   Overcast
11:35 PM 42.8°F 41.0°F 93% 29.57 in 10.0 miles SSW 6.9 mph - N/A   Overcast
11:55 PM 42.8°F 41.0°F 93% 29.58 in 7.0 miles SSW 5.8 mph - N/A Rain Light Rain
Moon Phase
Dec. 11 Dec. 13 Dec. 20 Dec. 28 Jan. 04
Sunrise:07:54 AM (PST) Moon Rise:05:51 AM (PST)12/11
Sunset:04:15 PM (PST) Moon Set:03:02 PM (PST)12/11

Copyright © 2014 The Weather Underground, Inc.